• In Lithuania
  • List of Countries
  • For 7 days
  • Water Temperature
  • Satellite Maps
  • Weather Map
  • Weather Widgets
  • user-avatar
    Login

    Hourly Weather Dalat

    Today, 17 July, Tuesday

    Time Temperature Precipitation Wind Pressure Humidity
    00:00 +19°C° 0.2 mm 2 mps 649 mmHg 91%
    01:00 +19°C° 0.2 mm 2 mps 649 mmHg 92%
    02:00 +18°C° 0.5 mm 2 mps 648 mmHg 93%
    03:00 +18°C° 0.5 mm 2 mps 648 mmHg 94%
    04:00 +18°C° 0.5 mm 2 mps 648 mmHg 95%
    05:00 +18°C° 0.7 mm 2 mps 648 mmHg 95%
    06:00 +18°C° 0.7 mm 2 mps 648 mmHg 95%
    07:00 +18°C° 0.7 mm 2 mps 648 mmHg 96%
    08:00 +19°C° 0.7 mm 2 mps 648 mmHg 95%
    09:00 +19°C° 0.7 mm 2 mps 648 mmHg 95%
    10:00 +19°C° 0.7 mm 2 mps 648 mmHg 94%
    11:00 +20°C° 0.2 mm 2 mps 649 mmHg 91%
    12:00 +20°C° 0.2 mm 2 mps 649 mmHg 88%
    13:00 +21°C° 0.2 mm 2 mps 649 mmHg 84%
    14:00 +21°C° 0.2 mm 2 mps 648 mmHg 85%
    15:00 +21°C° 0.2 mm 2 mps 648 mmHg 85%
    16:00 +21°C° 0.2 mm 2 mps 648 mmHg 85%
    17:00 +20°C° 0.2 mm 2 mps 648 mmHg 87%
    18:00 +19°C° 0.2 mm 2 mps 648 mmHg 90%
    19:00 +19°C° 0.2 mm 2 mps 648 mmHg 92%
    20:00 +19°C° 0.1 mm 2 mps 648 mmHg 93%
    21:00 +19°C° 0.1 mm 2 mps 648 mmHg 93%
    22:00 +18°C° 0.1 mm 2 mps 649 mmHg 94%
    23:00 +18°C° 0.1 mm 2 mps 649 mmHg 94%

    Tomorrow, 18 July, Wednesday

    Time Temperature Precipitation Wind Pressure Humidity
    00:00 +18°C° 0.1 mm 2 mps 648 mmHg 94%
    01:00 +19°C° 0.1 mm 2 mps 648 mmHg 94%
    02:00 +19°C° 0.1 mm 2 mps 648 mmHg 94%
    03:00 +19°C° 0.1 mm 2 mps 648 mmHg 94%
    04:00 +19°C° 0.1 mm 2 mps 648 mmHg 94%
    05:00 +19°C° 0.1 mm 2 mps 648 mmHg 93%
    06:00 +19°C° 0.1 mm 2 mps 648 mmHg 92%
    07:00 +19°C° 0.1 mm 2 mps 648 mmHg 91%
    08:00 +20°C° 0.2 mm 2 mps 649 mmHg 89%
    09:00 +21°C° 0.2 mm 2 mps 649 mmHg 87%
    10:00 +21°C° 0.2 mm 2 mps 650 mmHg 85%
    11:00 +21°C° 0.5 mm 2 mps 649 mmHg 85%
    12:00 +21°C° 0.5 mm 2 mps 649 mmHg 86%
    13:00 +21°C° 0.5 mm 2 mps 649 mmHg 86%
    14:00 +21°C° 0.3 mm 2 mps 648 mmHg 87%
    15:00 +21°C° 0.3 mm 2 mps 648 mmHg 87%
    16:00 +21°C° 0.3 mm 2 mps 647 mmHg 87%
    17:00 +20°C° 0.4 mm 2 mps 648 mmHg 89%
    18:00 +20°C° 0.4 mm 2 mps 648 mmHg 91%
    19:00 +20°C° 0.4 mm 2 mps 648 mmHg 93%
    20:00 +20°C° 0.4 mm 2 mps 649 mmHg 94%
    21:00 +20°C° 0.4 mm 2 mps 649 mmHg 94%
    22:00 +20°C° 0.4 mm 2 mps 650 mmHg 94%
    23:00 +19°C° 0.2 mm 2 mps 650 mmHg 94%

    Day after tomorrow, 19 July, Thursday

    Time Temperature Precipitation Wind Pressure Humidity
    00:00 +19°C° 0.2 mm 2 mps 650 mmHg 94%
    01:00 +19°C° 0.2 mm 2 mps 649 mmHg 94%
    02:00 +19°C° 0.2 mm 2 mps 649 mmHg 94%
    03:00 +19°C° 0.2 mm 2 mps 649 mmHg 94%
    04:00 +19°C° 0.2 mm 2 mps 648 mmHg 94%
    05:00 +19°C° 0.1 mm 2 mps 649 mmHg 93%
    06:00 +19°C° 0.1 mm 2 mps 649 mmHg 92%
    07:00 +20°C° 0.1 mm 3 mps 649 mmHg 91%
    08:00 +20°C° 0.1 mm 3 mps 650 mmHg 88%
    09:00 +21°C° 0.1 mm 3 mps 651 mmHg 85%
    10:00 +22°C° 0.1 mm 3 mps 651 mmHg 82%
    11:00 +23°C° 0.2 mm 2 mps 651 mmHg 81%
    12:00 +23°C° 0.2 mm 2 mps 651 mmHg 81%
    13:00 +24°C° 0.2 mm 2 mps 651 mmHg 80%
    14:00 +24°C° 0.3 mm 3 mps 650 mmHg 81%
    15:00 +22°C° 0.3 mm 3 mps 650 mmHg 82%
    16:00 +22°C° 0.3 mm 3 mps 650 mmHg 83%
    17:00 +21°C° 0.2 mm 2 mps 650 mmHg 86%
    18:00 +21°C° 0.2 mm 2 mps 650 mmHg 89%
    19:00 +20°C° 0.2 mm 2 mps 650 mmHg 93%
    20:00 +20°C° 0.1 mm 2 mps 651 mmHg 93%
    21:00 +19°C° 0.1 mm 2 mps 651 mmHg 94%
    22:00 +19°C° 0.1 mm 2 mps 652 mmHg 94%
    23:00 +19°C° 0.1 mm 2 mps 652 mmHg 94%

    20 July, Friday

    Time Temperature Precipitation Wind Pressure Humidity
    00:00 +19°C° 0.1 mm 2 mps 651 mmHg 94%
    01:00 +19°C° 0.1 mm 2 mps 651 mmHg 94%
    02:00 +19°C° 0 mm 2 mps 650 mmHg 94%
    03:00 +19°C° 0 mm 2 mps 650 mmHg 94%
    04:00 +19°C° 0 mm 2 mps 650 mmHg 93%
    05:00 +19°C° 0.1 mm 2 mps 650 mmHg 92%
    06:00 +19°C° 0.1 mm 2 mps 651 mmHg 91%
    07:00 +20°C° 0.1 mm 2 mps 651 mmHg 89%
    08:00 +21°C° 0.1 mm 2 mps 652 mmHg 85%
    09:00 +23°C° 0.1 mm 2 mps 652 mmHg 80%
    10:00 +24°C° 0.1 mm 2 mps 653 mmHg 75%
    11:00 +25°C° 0.1 mm 2 mps 652 mmHg 72%
    12:00 +25°C° 0.1 mm 2 mps 652 mmHg 69%
    13:00 +26°C° 0.1 mm 2 mps 652 mmHg 65%
    14:00 +26°C° 0.5 mm 2 mps 651 mmHg 70%
    15:00 +25°C° 0.5 mm 3 mps 651 mmHg 74%
    16:00 +24°C° 0.5 mm 3 mps 650 mmHg 79%
    17:00 +23°C° 0.4 mm 2 mps 651 mmHg 84%
    18:00 +21°C° 0.4 mm 2 mps 651 mmHg 88%
    19:00 +20°C° 0.4 mm 2 mps 651 mmHg 93%
    20:00 +20°C° 0.1 mm 2 mps 651 mmHg 93%
    21:00 +19°C° 0.1 mm 2 mps 652 mmHg 93%
    22:00 +19°C° 0.1 mm 2 mps 652 mmHg 93%
    23:00 +19°C° 0.1 mm 2 mps 652 mmHg 93%

    21 July, Saturday

    Time Temperature Precipitation Wind Pressure Humidity
    00:00 +19°C° 0.1 mm 2 mps 651 mmHg 93%
    01:00 +19°C° 0.1 mm 2 mps 651 mmHg 92%
    02:00 +19°C° 1 mm 2 mps 651 mmHg 92%
    03:00 +19°C° 1 mm 2 mps 650 mmHg 92%
    04:00 +19°C° 1 mm 2 mps 650 mmHg 92%
    05:00 +19°C° 0.3 mm 2 mps 651 mmHg 91%
    06:00 +19°C° 0.3 mm 2 mps 651 mmHg 89%
    07:00 +20°C° 0.3 mm 2 mps 651 mmHg 88%
    08:00 +21°C° 0.1 mm 2 mps 652 mmHg 84%
    09:00 +23°C° 0.1 mm 2 mps 652 mmHg 79%
    10:00 +24°C° 0.1 mm 2 mps 653 mmHg 75%
    11:00 +25°C° 0.1 mm 2 mps 652 mmHg 72%
    12:00 +25°C° 0.1 mm 2 mps 652 mmHg 69%
    13:00 +26°C° 0.1 mm 2 mps 652 mmHg 66%
    14:00 +26°C° 0.1 mm 2 mps 651 mmHg 66%
    15:00 +26°C° 0.1 mm 2 mps 651 mmHg 66%
    16:00 +26°C° 0.1 mm 2 mps 651 mmHg 66%
    17:00 +25°C° 0.1 mm 2 mps 651 mmHg 73%
    18:00 +23°C° 0.1 mm 2 mps 651 mmHg 81%
    19:00 +21°C° 0.1 mm 1 mps 651 mmHg 89%
    20:00 +21°C° 0 mm 1 mps 651 mmHg 90%
    21:00 +21°C° 0 mm 1 mps 651 mmHg 91%
    22:00 +19°C° 0 mm 2 mps 651 mmHg 92%
    23:00 +19°C° 0 mm 2 mps 651 mmHg 91%

    22 July, Sunday

    Time Temperature Precipitation Wind Pressure Humidity
    00:00 +19°C° 0 mm 2 mps 651 mmHg 91%
    01:00 +19°C° 0 mm 2 mps 650 mmHg 90%
    02:00 +19°C° 0 mm 2 mps 650 mmHg 89%
    03:00 +19°C° 0 mm 2 mps 650 mmHg 89%
    04:00 +19°C° 0 mm 2 mps 650 mmHg 88%
    05:00 +20°C° 0 mm 2 mps 651 mmHg 87%
    06:00 +20°C° 0 mm 2 mps 651 mmHg 86%
    07:00 +20°C° 0 mm 2 mps 651 mmHg 85%
    08:00 +21°C° 0 mm 2 mps 652 mmHg 79%
    09:00 +24°C° 0 mm 2 mps 652 mmHg 74%
    10:00 +25°C° 0 mm 3 mps 652 mmHg 68%
    11:00 +26°C° 0 mm 3 mps 652 mmHg 64%
    12:00 +27°C° 0 mm 3 mps 652 mmHg 59%
    13:00 +28°C° 0 mm 3 mps 652 mmHg 55%
    14:00 +28°C° 0.4 mm 3 mps 651 mmHg 59%
    15:00 +27°C° 0.4 mm 2 mps 651 mmHg 62%
    16:00 +27°C° 0.4 mm 2 mps 650 mmHg 66%
    17:00 +25°C° 0.8 mm 2 mps 650 mmHg 73%
    18:00 +23°C° 0.8 mm 2 mps 650 mmHg 81%
    19:00 +22°C° 0.8 mm 1 mps 650 mmHg 88%
    20:00 +20°C° 0 mm 2 mps 650 mmHg 89%
    21:00 +20°C° 0 mm 2 mps 650 mmHg 90%
    22:00 +20°C° 0 mm 2 mps 651 mmHg 91%
    23:00 +19°C° 0 mm 2 mps 650 mmHg 91%
    Show more